TimeCST,TemperatureF,Dew PointF,Humidity,Sea Level PressureIn,VisibilityMPH,Wind Direction,Wind SpeedMPH,Gust SpeedMPH,PrecipitationIn,Events,Conditions,WindDirDegrees,DateUTC
12:55 AM,46.0,33.1,61,29.52,10.0,SSW,12.7,-,N/A,,Clear,210,2013-12-03 06:55:00
1:55 AM,48.0,33.1,56,29.50,10.0,SW,15.0,-,N/A,,Clear,220,2013-12-03 07:55:00
2:55 AM,46.9,33.1,59,29.50,10.0,WSW,11.5,-,N/A,,Clear,240,2013-12-03 08:55:00
3:55 AM,48.9,32.0,52,29.49,10.0,WSW,11.5,-,N/A,,Clear,240,2013-12-03 09:55:00
4:55 AM,46.9,32.0,56,29.51,10.0,West,10.4,-,N/A,,Clear,260,2013-12-03 10:55:00
5:55 AM,44.1,30.9,60,29.51,10.0,West,5.8,-,N/A,,Clear,260,2013-12-03 11:55:00
6:55 AM,41.0,30.9,67,29.51,10.0,WSW,5.8,-,N/A,,Clear,240,2013-12-03 12:55:00
7:55 AM,37.0,30.0,76,29.55,10.0,WNW,4.6,-,N/A,,Clear,300,2013-12-03 13:55:00
8:55 AM,43.0,30.0,60,29.55,10.0,WNW,8.1,-,N/A,,Clear,300,2013-12-03 14:55:00
9:55 AM,43.0,30.9,62,29.57,10.0,NNW,8.1,-,N/A,,Clear,330,2013-12-03 15:55:00
10:55 AM,46.9,32.0,56,29.57,-9999.0,North,9.2,-,N/A,,Clear,10,2013-12-03 16:55:00
11:39 AM,46.9,32.0,56,29.55,-9999.0,North,8.1,-,N/A,,Partly Cloudy,10,2013-12-03 17:39:00
11:55 AM,48.0,33.1,56,29.54,10.0,NNE,6.9,-,N/A,,Clear,20,2013-12-03 17:55:00
12:55 PM,52.0,34.0,50,29.53,10.0,North,8.1,-,N/A,,Clear,10,2013-12-03 18:55:00
1:55 PM,53.1,34.0,48,29.54,10.0,North,9.2,-,N/A,,Clear,10,2013-12-03 19:55:00
2:55 PM,52.0,34.0,50,29.52,10.0,NNE,11.5,-,N/A,,Clear,30,2013-12-03 20:55:00
3:55 PM,48.9,33.1,54,29.55,10.0,North,17.3,-,N/A,,Clear,10,2013-12-03 21:55:00
4:55 PM,43.0,32.0,65,29.55,8.0,NNE,15.0,-,N/A,,Clear,20,2013-12-03 22:55:00
5:55 PM,39.0,30.9,73,29.58,8.0,NNE,11.5,-,N/A,,Clear,30,2013-12-03 23:55:00
6:55 PM,37.0,32.0,82,29.62,7.0,NNE,13.8,-,N/A,,Clear,20,2013-12-04 00:55:00
7:55 PM,36.0,30.9,82,29.64,7.0,North,11.5,-,N/A,,Clear,10,2013-12-04 01:55:00
8:55 PM,34.0,30.0,85,29.66,7.0,North,10.4,-,N/A,,Partly Cloudy,10,2013-12-04 02:55:00
9:09 PM,34.0,30.0,85,29.65,7.0,North,9.2,-,N/A,,Mostly Cloudy,10,2013-12-04 03:09:00
9:20 PM,34.0,30.0,85,29.64,7.0,NNE,10.4,-,N/A,,Overcast,20,2013-12-04 03:20:00
9:55 PM,34.0,30.9,89,29.66,6.0,NNE,10.4,-,N/A,,Mostly Cloudy,20,2013-12-04 03:55:00
10:55 PM,36.0,32.0,86,29.65,6.0,NNE,15.0,-,N/A,,Overcast,30,2013-12-04 04:55:00
11:55 PM,35.1,32.0,89,29.67,5.0,North,11.5,-,N/A,,Overcast,350,2013-12-04 05:55:00